Location: Unspecified
(0.0000°N, 0.0000°E)
Time: 01:23:22
(UTC+01:00)

Cosmos 1072 Rocket - Visible Passes

Search period start: 11 February 2016 00:00
Search period end: 21 February 2016 00:00
Orbit: 949 x 1008 km, 82.9° (Epoch: 09 February)

Date Brightness Start Highest point End Pass type
(mag) Time Alt. Az. Time Alt. Az. Time Alt. Az.
11 Feb 6.7 22:12:27 10° SSW 22:13:40 16° SSW 22:13:40 16° SSW visible
12 Feb 6.0 20:53:57 10° SSE 20:55:49 19° SE 20:55:49 19° SE visible
12 Feb 7.2 22:40:23 10° SW 22:40:36 11° SW 22:40:36 11° SW visible
13 Feb 5.5 21:19:30 10° S 21:22:50 34° S 21:22:50 34° S visible
14 Feb 6.3 20:04:47 10° ESE 20:05:09 11° ESE 20:05:09 11° ESE visible
14 Feb 5.6 21:46:02 10° SSW 21:49:58 37° SW 21:49:58 37° SW visible
15 Feb 5.3 20:27:55 10° SSE 20:32:26 28° ESE 20:32:26 28° ESE visible
15 Feb 6.6 22:13:40 10° SW 22:17:14 21° W 22:17:14 21° W visible
16 Feb 4.3 20:53:16 10° S 20:59:19 65° E 20:59:53 62° ENE visible
17 Feb 5.0 21:19:37 10° SSW 21:25:36 57° W 21:27:36 40° NNW visible
18 Feb 5.4 20:01:54 10° SE 20:06:47 25° E 20:10:53 13° NE visible
18 Feb 6.4 21:47:01 10° SW 21:51:54 25° W 21:55:47 14° NW visible
19 Feb 4.5 20:27:04 10° S 20:33:03 56° E 20:39:06 10° NNE visible
20 Feb 4.8 20:53:16 10° SSW 20:59:20 65° W 21:05:29 10° N visible
